Preview of NWS' New Version of Forecast
This preview is not operational and should not be used for support decisions.

Regional Weather Roundup (RWR)

Issued by National Weather Service (NWS)

                            
000
ASUS43 KTOP 191459
RWRKS 

WEATHER ROUNDUP FOR KANSAS
NATIONAL WEATHER SERVICE GOODLAND KS
1000 AM CDT MON AUG 19 2019

NOTE:  "FAIR" INDICATES FEW OR NO CLOUDS BELOW 12,000 FEET WITH NO
SIGNIFICANT WEATHER AND/OR OBSTRUCTIONS TO VISIBILITY.

KSZ001>006-013>018-027>032-041>047-191600-
NORTHWEST KANSAS
  
CITY           SKY/WX    TMP DP  RH WIND       PRES   REMARKS
GOODLAND       PTSUNNY   71  69  93 SE10      30.01S FOG              
HAYS           CLOUDY    75  74  96 SE9       29.91R FOG              
HILL CITY      FOG       71  71 100 E7        30.00R VSB 1/4          
RUSSELL        CLOUDY    74  73  97 SE10      29.97F FOG              
$$

KSZ061>065-074>080-084>089-191600-
SOUTHWEST KANSAS
  
CITY           SKY/WX    TMP DP  RH WIND       PRES   REMARKS
DODGE CITY     SUNNY     83  68  60 SE7       30.00R                  
GARDEN CITY    SUNNY     80  67  64 S5        29.99S                  
GREAT BEND     SUNNY     80  75  84 S10       29.98S                  
LIBERAL        SUNNY     82  64  54 SW7       30.01R                  
$$

KSZ066>073-081>083-090>101-191600-
SOUTHEAST KANSAS
  
CITY           SKY/WX    TMP DP  RH WIND       PRES   REMARKS
CHANUTE        SUNNY     86  74  67 S12       30.00S                  
COFFEYVILLE    MOSUNNY   84  74  71 S10       29.98S                  
HUTCHINSON     SUNNY     83  73  72 S12       29.97S                  
MEDICINE LODGE   N/A     84  70  62 VRB6      29.96R                  
NEWTON         SUNNY     81  74  79 S14       29.99S                  
PARSONS        MOSUNNY   84  76  76 S8        30.01R                  
WICHITA INTL   MOSUNNY   84  73  69 S12       29.97S                  
WICHITA JABRA  SUNNY     83  73  72 S10       29.97S                  
WINFIELD       SUNNY     84  71  65 S8        29.99S                  
$$

KSZ007>012-019>026-033>040-048>060-102>105-191600-
NORTHEAST KANSAS
  
CITY           SKY/WX    TMP DP  RH WIND       PRES   REMARKS
CONCORDIA      SUNNY     77  72  84 SE9       29.99S                  
EMPORIA        SUNNY     83  75  77 S10       29.99R                  
LAWRENCE       SUNNY     83  73  72 E8        30.00S                  
MANHATTAN      SUNNY     80  72  76 E6        29.98S                  
OLATHE IND     SUNNY     82  74  76 E5        30.02S                  
OLATHE EXE     SUNNY     81  74  79 SE6       30.02S                  
SALINA         SUNNY     81  74  79 E7        29.98R                  
TOPEKA BILLARD SUNNY     80  73  79 E6        29.99S                  
TOPEKA FORBES  SUNNY     83  73  72 E7        30.00S                  
$$